Date String (YYYY-MM-DD hh:mm:ss) UTC,Instrument flags,Ambient pressure (hPa),Sample flow (lpm),Bypass flow (lpm),Sample temperature (°C),Ambient temperature (°C),ASC tube jacket temperature (°C),LED temperature (°C),Box temperature (°C),Sample RH (%),Span deviation,Mass concentration (μg/m³),Mass concentration (μg/m³),Mass concentration (μg/m³)
DateTimeUTC,F1_M11,P_M11,Q1_M11,Q2_M11,T1_M11,T2_M11,T3_M11,T4_M11,T5_M11,U1_M11,ZSPAN_M11,X0_M11,X2_M11,X1_M11
2022-01-13 14:00:00,,0830.9,4.99,0.00,25.7,24.8,00.0,34.7,27.4,09.6,0000.0,0000.13,0000.01,0000.00
2022-01-13 14:01:00,,0830.9,5.01,0.00,25.7,24.8,00.0,34.7,27.4,09.8,0000.0,0000.07,0000.01,0000.00
2022-01-13 14:02:00,,0831.0,4.99,0.00,25.7,24.8,00.0,34.7,27.4,10.0,0000.0,0000.01,0000.00,0000.00
2022-01-13 14:03:00,,0830.9,5.00,0.00,25.7,24.7,00.0,34.7,27.4,10.1,0000.0,0000.01,0000.00,0000.00
2022-01-13 14:04:00,,0830.9,5.01,0.00,25.7,24.7,00.0,34.7,27.4,10.2,0000.0,0000.05,0000.01,0000.00
2022-01-13 14:05:00,,0831.0,4.98,0.00,25.6,24.7,00.0,34.7,27.3,10.2,0000.0,0000.10,0000.02,0000.00
2022-01-13 14:06:00,,0830.9,5.02,0.00,25.6,24.7,00.0,34.7,27.3,10.2,0000.0,0000.10,0000.02,0000.00
2022-01-13 14:07:00,,0830.9,4.99,0.00,25.6,24.7,00.0,34.7,27.3,10.2,0000.0,0000.14,0000.03,0000.00
2022-01-13 14:08:00,,0830.9,5.01,0.00,25.6,24.7,00.0,34.7,27.3,10.1,0000.0,0000.14,0000.03,0000.00
2022-01-13 14:09:00,,0830.9,5.00,0.00,25.6,24.7,00.0,34.7,27.3,10.0,0000.0,0000.14,0000.03,0000.00
2022-01-13 14:10:00,,0831.0,4.99,0.00,25.6,24.7,00.0,34.7,27.3,10.0,0000.0,0000.14,0000.03,0000.00
2022-01-13 14:11:00,,0830.9,5.01,0.00,25.6,24.6,00.0,34.7,27.3,10.0,0000.0,0000.13,0000.03,0000.00
2022-01-13 14:12:00,,0830.9,5.00,0.00,25.6,24.6,00.0,34.7,27.3,10.0,0000.0,0000.13,0000.03,0000.00
2022-01-13 14:13:00,,0830.9,5.00,0.00,25.6,24.6,00.0,34.6,27.3,10.1,0000.0,0000.44,0000.03,0000.00
2022-01-13 14:14:00,,0830.9,5.00,0.00,25.6,24.6,00.0,34.6,27.2,10.2,0000.0,0000.71,0000.04,0000.00
2022-01-13 14:15:00,,0830.9,5.01,0.00,25.5,24.6,00.0,34.6,27.2,10.3,0000.0,0000.68,0000.03,0000.00
2022-01-13 14:16:00,,0830.9,5.00,0.00,25.5,24.6,00.0,34.6,27.2,10.4,0000.0,0000.62,0000.02,0000.00
2022-01-13 14:17:00,,0830.9,4.99,0.00,25.5,24.6,00.0,34.6,27.2,10.4,0000.0,0000.62,0000.02,0000.00
2022-01-13 14:18:00,,0830.9,5.00,0.00,25.5,24.6,00.0,34.6,27.2,10.6,0000.0,0000.60,0000.02,0000.00
2022-01-13 14:19:00,,0830.9,5.01,0.00,25.5,24.6,00.0,34.6,27.2,10.7,0000.0,0000.61,0000.03,0000.00
2022-01-13 14:20:00,,0830.9,5.00,0.00,25.5,24.6,00.0,34.6,27.2,10.7,0000.0,0000.65,0000.04,0000.00
2022-01-13 14:21:00,,0830.9,5.00,0.00,25.5,24.6,00.0,34.6,27.2,10.7,0000.0,0000.68,0000.05,0000.00
2022-01-13 14:22:00,,0831.0,5.00,0.00,25.5,24.6,00.0,34.6,27.2,10.8,0000.0,0000.73,0000.07,0000.00
2022-01-13 14:23:00,,0830.9,4.99,0.00,25.5,24.6,00.0,34.6,27.2,10.9,0000.0,0000.73,0000.07,0000.01
2022-01-13 14:24:00,,0830.9,5.01,0.00,25.5,24.5,00.0,34.6,27.2,10.9,0000.0,0000.48,0000.07,0000.00
2022-01-13 14:25:00,,0830.9,5.00,0.00,25.5,24.6,00.0,34.5,27.2,10.9,0000.0,0000.15,0000.06,0000.00
2022-01-13 14:26:00,,0830.9,4.99,0.00,25.5,24.5,00.0,34.5,27.2,10.9,0000.0,0000.15,0000.06,0000.00
2022-01-13 14:27:00,,0830.9,5.01,0.00,25.5,24.5,00.0,34.5,27.1,10.9,0000.0,0000.15,0000.06,0000.00
2022-01-13 14:28:00,,0830.9,5.00,0.00,25.4,24.5,00.0,34.5,27.1,10.9,0000.0,0000.15,0000.06,0000.00
2022-01-13 14:29:00,,0830.9,5.00,0.00,25.4,24.5,00.0,34.5,27.2,10.9,0000.0,0000.14,0000.05,0000.00
2022-01-13 14:30:00,,0830.9,5.00,0.00,25.5,24.5,00.0,34.5,27.2,11.0,0000.0,0000.45,0000.05,0000.00
2022-01-13 14:31:00,,0831.0,4.99,0.00,25.4,24.5,00.0,34.5,27.2,10.9,0000.0,0000.48,0000.07,0000.01
2022-01-13 14:32:00,,0831.0,5.00,0.00,25.4,24.5,00.0,34.5,27.2,10.9,0000.0,0000.47,0000.07,0000.01
2022-01-13 14:33:00,,0830.9,5.01,0.00,25.4,24.5,00.0,34.5,27.2,11.0,0000.0,0000.91,0000.06,0000.00
2022-01-13 14:34:00,,0830.9,5.01,0.00,25.4,24.5,00.0,34.5,27.1,11.0,0000.0,0001.19,0000.07,0000.00
2022-01-13 14:35:00,,0830.9,4.98,0.00,25.4,24.5,00.0,34.5,27.1,10.9,0000.0,0001.19,0000.07,0000.00
2022-01-13 14:36:00,,0831.0,5.01,0.00,25.4,24.5,00.0,34.5,27.1,10.8,0000.0,0001.19,0000.07,0000.00
2022-01-13 14:37:00,,0831.0,5.00,0.00,25.4,24.5,00.0,34.5,27.1,10.8,0000.0,0001.19,0000.07,0000.00
2022-01-13 14:38:00,,0830.9,5.00,0.00,25.4,24.5,00.0,34.5,27.1,10.8,0000.0,0001.19,0000.07,0000.00
2022-01-13 14:39:00,,0831.0,4.99,0.00,25.4,24.5,00.0,34.5,27.1,10.8,0000.0,0001.23,0000.08,0000.00
2022-01-13 14:40:00,,0830.9,5.00,0.00,25.4,24.5,00.0,34.5,27.1,10.8,0000.0,0001.22,0000.08,0000.00
2022-01-13 14:41:00,,0831.0,5.00,0.00,25.4,24.5,00.0,34.5,27.1,10.9,0000.0,0000.88,0000.07,0000.00
2022-01-13 14:42:00,,0830.9,5.01,0.00,25.4,24.5,00.0,34.4,27.1,11.0,0000.0,0000.83,0000.04,0000.00
2022-01-13 14:43:00,,0830.9,5.00,0.00,25.4,24.4,00.0,34.4,27.1,11.0,0000.0,0000.82,0000.03,0000.00
2022-01-13 14:44:00,,0831.0,5.00,0.00,25.4,24.4,00.0,34.4,27.1,11.1,0000.0,0000.28,0000.03,0000.00
2022-01-13 14:45:00,,0831.0,5.00,0.00,25.4,24.4,00.0,34.4,27.0,11.1,0000.0,0000.09,0000.03,0000.00
2022-01-13 14:46:00,,0830.9,5.01,0.00,25.4,24.4,00.0,34.4,27.1,11.1,0000.0,0000.10,0000.03,0000.00
2022-01-13 14:47:00,,0831.0,4.99,0.00,25.4,24.4,00.0,34.4,27.1,11.1,0000.0,0000.50,0000.04,0000.00
2022-01-13 14:48:00,,0830.9,5.00,0.00,25.4,24.4,00.0,34.4,27.1,11.2,0000.0,0000.50,0000.04,0000.00
2022-01-13 14:49:00,,0830.9,5.00,0.00,25.3,24.4,00.0,34.4,27.1,11.2,0000.0,0000.54,0000.06,0000.00
2022-01-13 14:50:00,,0831.0,5.00,0.00,25.3,24.4,00.0,34.4,27.0,11.2,0000.0,0000.50,0000.04,0000.00
2022-01-13 14:51:00,,0831.0,5.01,0.00,25.3,24.4,00.0,34.4,27.0,11.3,0000.0,0000.50,0000.04,0000.00
2022-01-13 14:52:00,,0830.9,4.99,0.00,25.3,24.4,00.0,34.4,27.0,11.3,0000.0,0000.50,0000.04,0000.00
2022-01-13 14:53:00,,0830.9,5.01,0.00,25.3,24.4,00.0,34.4,27.0,11.2,0000.0,0000.50,0000.04,0000.00
2022-01-13 14:54:00,,0830.9,4.99,0.00,25.3,24.4,00.0,34.4,27.0,11.3,0000.0,0000.55,0000.04,0000.00
2022-01-13 14:55:00,,0831.0,5.00,0.00,25.3,24.4,00.0,34.4,27.0,11.3,0000.0,0002.22,0000.03,0000.00
2022-01-13 14:56:00,,0831.0,5.01,0.00,25.3,24.4,00.0,34.4,27.0,11.3,0000.0,0002.20,0000.02,0000.00
2022-01-13 14:57:00,,0830.9,4.99,0.00,25.3,24.4,00.0,34.4,27.0,11.3,0000.0,0002.20,0000.02,0000.00
2022-01-13 14:58:00,,0831.0,5.00,0.00,25.3,24.4,00.0,34.3,27.0,11.4,0000.0,0001.82,0000.02,0000.00
2022-01-13 14:59:00,,0831.0,5.01,0.00,25.3,24.4,00.0,34.4,27.0,11.4,0000.0,0001.80,0000.02,0000.00
